Hourly Data Report for April 09, 2021

TORONTO CITY
ONTARIO
Current Station Operator: ECCC - MSC

43°40'00.000" N
79°24'00.000" W
112.50 m
6158355
71508
XTO

Download Data

Hourly Data (April 2021)
Hourly Data Report for April 9, 2021
TIME
LST
Temp Definition
°C
Dew Point Definition
°C
Rel Hum Definition
%
Precip. Amount Definition
mm

Wind Dir Definition
10's deg

Wind Spd Definition
km/h
Visibility Definition
km
Stn Press Definition
kPa
Hmdx Definition


Wind Chill Definition


Weather Definition


00:00 13.6 5.2 57 0.0       99.71     LegendNANA
01:00 13.5 5.5 58 0.0       99.72     LegendNANA
02:00 13.2 5.4 59 0.0       99.70     LegendNANA
03:00 13.4 5.7 60 0.0       99.69     LegendNANA
04:00 14.5 7.0 61 0.0       99.71     LegendNANA
05:00 14.4 7.1 62 0.0       99.77     LegendNANA
06:00 12.7 9.4 80 0.7       99.82     LegendNANA
07:00 13.1 10.1 82 0.1       99.85     LegendNANA
08:00 14.1 9.9 75 0.0       99.90     LegendNANA
09:00 14.2 9.9 76 0.0       99.93     LegendNANA
10:00 15.9 9.7 67 0.0       99.95     LegendNANA
11:00 15.1 9.7 70 0.0       99.96     LegendNANA
12:00 13.4 9.1 75 0.0       99.97     LegendNANA
13:00 14.2 9.0 70 0.0       99.96     LegendNANA
14:00 15.6 9.3 66 0.0       99.93     LegendNANA
15:00 16.7 9.1 61 0.0       99.89     LegendNANA
16:00 16.3 9.1 62 0.0       99.85     LegendNANA
17:00 15.9 8.8 63 0.0       99.87     LegendNANA
18:00 14.2 9.0 71 0.0       99.86     LegendNANA
19:00 14.8 10.1 73 0.0       99.81     LegendNANA
20:00 13.6 9.6 77 0.0       99.84     LegendNANA
21:00 14.0 9.0 72 0.0       99.84     LegendNANA
22:00 13.8 8.8 72 0.0       99.84     LegendNANA
23:00 13.6 9.0 74 0.0       99.86     LegendNANA

Notes on Data Quality.

Legend

  • E = Estimated
  • M = Missing
  • NA = Not Available*
  • [empty] = Indicates an unobserved value
Date modified: